K9APR Weather Reports


Display with metric or nautical units.
time (UTC)temp
F
wind
direction
speed
MPH
gust
MPH
rain 1hr
in
rain 24hr
in
rain mn
in
humidity
%
barometer
mb
20260508040854 50 174 1.0 2.0 0.00 0.00 0.00 66 1015.0
20260508040822 50 174 1.0 2.0 0.00 0.00 0.00 66 1015.0
20260508035924 50 229 1.0 2.0 0.00 0.00 0.00 67 1015.0
20260508035026 51 158 1.0 1.0 0.00 0.00 0.00 66 1015.0
20260508034123 50 160 1.0 2.0 0.00 0.00 0.00 65 1014.9
20260508033223 50 152 1.0 1.0 0.00 0.00 0.00 66 1015.1
20260508032323 50 138 1.0 2.0 0.00 0.00 0.00 67 1015.0
20260508031424 50 170 2.0 3.0 0.00 0.00 0.00 66 1015.0
20260508030523 50 160 0.0 0.0 0.00 0.00 0.00 65 1015.0
20260508025630 50 151 1.0 3.0 0.00 0.00 0.00 67 1015.1
20260508024724 49 165 1.0 3.0 0.00 0.00 0.00 68 1015.0
20260508023823 49 149 0.0 1.0 0.00 0.00 0.00 68 1014.9
20260508022923 50 149 0.0 0.0 0.00 0.00 0.00 67 1014.8
20260508022023 50 150 0.0 0.0 0.00 0.00 0.00 67 1014.9
20260508021124 50 150 0.0 0.0 0.00 0.00 0.00 67 1014.9
20260508020223 50 235 0.0 1.0 0.00 0.00 0.00 66 1015.0
20260508015323 51 234 0.0 1.0 0.00 0.00 0.00 65 1014.8
20260508014424 51 234 0.0 0.0 0.00 0.00 0.00 64 1014.7
20260508013523 51 234 0.0 1.0 0.00 0.00 0.00 62 1014.9
20260508012623 52 250 0.0 1.0 0.00 0.00 0.00 62 1014.6
20260508011723 53 237 0.0 1.0 0.00 0.00 0.00 62 1014.5
20260508010823 53 240 0.0 1.0 0.00 0.00 0.00 57 1014.5
20260508005924 54 236 1.0 3.0 0.00 0.00 0.00 58 1014.5
20260508005023 54 286 1.0 1.0 0.00 0.00 0.00 58 1014.7
20260508004124 54 284 5.0 6.0 0.00 0.00 0.00 56 1014.8
20260508003222 55 284 5.0 7.0 0.00 0.00 0.00 54 1014.9
20260508002323 55 298 3.0 5.0 0.00 0.00 0.00 55 1014.8
20260508001423 55 300 6.0 6.0 0.00 0.00 0.00 50 1014.8
20260508000523 56 294 5.0 7.0 0.00 0.00 0.00 51 1014.7
20260507235626 56 304 5.0 6.0 0.00 0.00 0.00 55 1014.7
20260507234724 56 285 2.0 3.0 0.00 0.00 0.00 55 1014.5
20260507233823 56 286 2.0 3.0 0.00 0.00 0.00 51 1014.4
20260507232922 56 251 2.0 3.0 0.00 0.00 0.00 50 1014.3
20260507232023 57 282 2.0 3.0 0.00 0.00 0.00 49 1014.3
20260507231124 58 271 5.0 6.0 0.00 0.00 0.00 47 1014.3
20260507230222 58 268 2.0 5.0 0.00 0.00 0.00 45 1014.3
20260507225324 57 289 5.0 6.0 0.00 0.00 0.00 47 1014.5
20260507224423 58 257 2.0 3.0 0.00 0.00 0.00 44 1014.5
20260507223524 59 273 3.0 6.0 0.00 0.00 0.00 45 1014.5
20260507222624 59 294 5.0 7.0 0.00 0.00 0.00 44 1014.4
20260507221724 59 194 3.0 6.0 0.00 0.00 0.00 45 1014.5
20260507220823 58 246 5.0 8.0 0.00 0.00 0.00 45 1014.6
20260507215923 59 274 1.0 3.0 0.00 0.00 0.00 42 1014.6
20260507215023 59 255 3.0 6.0 0.00 0.00 0.00 43 1014.6
20260507214122 59 268 2.0 3.0 0.00 0.00 0.00 40 1014.6
20260507213223 59 275 1.0 6.0 0.00 0.00 0.00 43 1014.6
20260507212324 59 251 3.0 68.0 0.00 0.00 0.00 44 1014.8
20260507212322 59 251 3.0 8.0 0.00 0.00 0.00 44 1014.8
20260507211423 59 305 7.0 9.0 0.00 0.00 0.00 43 1014.7
20260507210524 58 262 2.0 3.0 0.00 0.00 0.00 42 1014.9
20260507205624 59 292 7.0 9.0 0.00 0.00 0.00 45 1015.0
20260507204723 58 295 8.0 10.0 0.00 0.00 0.00 46 1015.0
20260507203822 59 297 6.0 7.0 0.00 0.00 0.00 42 1015.1
20260507202922 58 296 2.0 5.0 0.00 0.00 0.00 46 1015.1
20260507202023 58 298 6.0 8.0 0.00 0.00 0.00 44 1015.1
20260507200222 58 288 8.0 13.0 0.00 0.00 0.00 45 1015.3
20260507195322 58 306 8.0 8.0 0.00 0.00 0.00 43 1015.3
20260507194425 58 305 3.0 7.0 0.00 0.00 0.00 45 1015.4
20260507193524 58 304 7.0 8.0 0.00 0.00 0.00 45 1015.3
20260507192624 58 315 2.0 3.0 0.00 0.00 0.00 47 1015.3
20260507191724 58 311 6.0 7.0 0.00 0.00 0.00 49 1015.5
20260507190822 58 305 9.0 9.0 0.00 0.00 0.00 43 1015.6
20260507185923 58 304 5.0 6.0 0.00 0.00 0.00 47 1015.5
20260507185023 58 308 3.0 6.0 0.00 0.00 0.00 45 1015.4
20260507184122 58 298 8.0 13.0 0.00 0.00 0.00 53 1015.5
20260507183224 57 287 5.0 8.0 0.00 0.00 0.00 50 1015.5
20260507182323 56 297 5.0 12.0 0.00 0.00 0.00 51 1015.7
20260507181422 56 302 5.0 6.0 0.00 0.00 0.00 45 1015.8
20260507180524 56 302 3.0 6.0 0.00 0.00 0.00 47 1015.8
20260507175624 57 297 7.0 10.0 0.00 0.00 0.00 51 1015.8
20260507174722 56 300 5.0 6.0 0.00 0.00 0.00 52 1015.9
20260507173823 56 301 6.0 9.0 0.00 0.00 0.00 52 1016.0
20260507172925 56 311 3.0 5.0 0.00 0.00 0.00 50 1016.1
20260507172023 55 301 5.0 8.0 0.00 0.00 0.00 47 1016.2
20260507171125 55 308 7.0 9.0 0.00 0.00 0.00 50 1016.4
20260507170223 55 295 8.0 12.0 0.00 0.00 0.00 49 1016.3
20260507165322 55 298 8.0 12.0 0.00 0.00 0.00 54 1016.4
20260507164423 54 305 5.0 6.0 0.00 0.00 0.00 48 1016.6
20260507163522 54 304 2.0 3.0 0.00 0.00 0.00 49 1016.7
20260507162623 53 305 7.0 12.0 0.00 0.00 0.00 50 1016.6
20260507161723 53 308 6.0 9.0 0.00 0.00 0.00 56 1016.7
20260507160822 53 316 5.0 8.0 0.00 0.00 0.00 51 1016.6
20260507155924 53 305 8.0 12.0 0.00 0.00 0.00 54 1016.7
20260507155024 53 308 5.0 6.0 0.00 0.00 0.00 49 1016.7
20260507154123 52 302 7.0 9.0 0.00 0.00 0.00 51 1016.6
20260507153223 52 306 8.0 10.0 0.00 0.00 0.00 56 1016.6
20260507152323 52 287 7.0 10.0 0.00 0.00 0.00 56 1016.5
20260507151422 51 304 5.0 5.0 0.00 0.00 0.00 52 1016.6
20260507150523 50 294 6.0 12.0 0.00 0.00 0.00 57 1016.4
20260507145624 50 297 7.0 8.0 0.00 0.00 0.00 54 1016.5
20260507144723 50 284 6.0 8.0 0.00 0.00 0.00 59 1016.7
20260507143825 50 298 8.0 12.0 0.00 0.00 0.00 59 1016.7
20260507142922 49 290 5.0 6.0 0.00 0.00 0.00 58 1016.7
20260507142024 49 298 7.0 10.0 0.00 0.00 0.00 61 1016.9
20260507141126 48 284 5.0 9.0 0.00 0.00 0.00 64 1016.9
20260507140223 47 297 5.0 7.0 0.00 0.00 0.00 60 1016.8
20260507135326 47 298 7.0 9.0 0.00 0.00 0.00 63 1016.7
20260507134423 46 292 3.0 5.0 0.00 0.00 0.00 69 1016.7
20260507133523 46 295 2.0 3.0 0.00 0.00 0.00 67 1016.7
20260507132623 45 303 3.0 3.0 0.00 0.00 0.00 68 1016.7
20260507131723 44 307 2.0 3.0 0.00 0.00 0.00 71 1016.8
20260507130856 44 299 2.0 3.0 0.00 0.00 0.00 73 1016.7
20260507130823 44 299 2.0 3.0 0.00 0.00 0.00 73 1016.7
20260507125923 43 293 3.0 5.0 0.00 0.00 0.00 77 1016.8
20260507125026 42 289 2.0 3.0 0.00 0.00 0.00 77 1016.5
20260507124127 42 292 2.0 2.0 0.00 0.00 0.00 79 1016.6
20260507123223 41 295 1.0 1.0 0.00 0.00 0.00 84 1016.6
20260507122327 40 285 1.0 2.0 0.00 0.00 0.00 84 1016.6
20260507121426 39 291 1.0 1.0 0.00 0.00 0.00 85 1016.6
20260507120601 39 297 0.0 1.0 0.00 0.00 0.00 87 1016.5
20260507120524 39 297 0.0 1.0 0.00 0.00 0.00 87 1016.5
20260507115622 38 297 0.0 1.0 0.00 0.00 0.00 86 1016.5
20260507114723 38 297 0.0 0.0 0.00 0.00 0.00 86 1016.4
20260507113855 37 297 0.0 0.0 0.00 0.00 0.00 86 1016.4
20260507113824 37 297 0.0 0.0 0.00 0.00 0.00 86 1016.4
20260507112923 37 297 0.0 0.0 0.00 0.00 0.00 87 1016.5
20260507112022 36 297 0.0 0.0 0.00 0.00 0.00 87 1016.5
20260507111122 36 297 0.0 0.0 0.00 0.00 0.00 87 1016.4
20260507110222 35 297 0.0 0.0 0.00 0.00 0.00 87 1016.4
20260507105326 36 297 0.0 0.0 0.00 0.00 0.00 87 1016.3
20260507104422 36 297 0.0 0.0 0.00 0.00 0.00 87 1016.1
20260507103522 36 297 0.0 0.0 0.00 0.00 0.00 85 1016.0
20260507102625 36 297 0.0 0.0 0.00 0.00 0.00 85 1016.0
20260507101723 36 297 0.0 0.0 0.00 0.00 0.00 84 1016.0
20260507100003 37 297 0.0 0.0 0.00 0.00 0.00 82 1015.9
20260507095923 37 297 0.0 0.0 0.00 0.00 0.00 82 1015.9
20260507095023 38 297 0.0 0.0 0.00 0.00 0.00 82 1016.0
20260507094123 38 297 0.0 0.0 0.00 0.00 0.00 81 1015.9
20260507093223 39 297 0.0 0.0 0.00 0.00 0.00 81 1016.0
20260507091423 40 297 1.0 1.0 0.00 0.00 0.00 79 1016.0
20260507090607 40 294 1.0 1.0 0.00 0.00 0.00 78 1015.9
20260507090522 40 294 1.0 1.0 0.00 0.00 0.00 78 1015.9
20260507085623 41 297 1.0 2.0 0.00 0.00 0.00 77 1015.8
20260507084751 41 306 1.0 2.0 0.00 0.00 0.00 76 1015.7
20260507083822 42 306 2.0 2.0 0.00 0.00 0.00 76 1015.7
20260507082923 42 305 2.0 2.0 0.00 0.00 0.00 76 1015.7
20260507082022 42 307 2.0 3.0 0.00 0.00 0.00 77 1015.6
20260507081122 41 305 2.0 3.0 0.00 0.00 0.00 78 1015.6
20260507080222 41 306 2.0 2.0 0.00 0.01 0.00 81 1015.7
20260507075323 40 307 2.0 3.0 0.00 0.01 0.00 83 1015.7
20260507074424 40 293 2.0 3.0 0.00 0.01 0.00 87 1015.7
20260507073523 39 296 1.0 2.0 0.00 0.02 0.00 88 1015.7
20260507072625 40 300 0.0 1.0 0.00 0.02 0.00 87 1015.7
20260507071723 40 300 0.0 1.0 0.00 0.03 0.00 87 1015.7
20260507070907 40 300 0.0 0.0 0.00 0.03 0.00 88 1015.8
20260507070823 40 300 0.0 0.0 0.00 0.03 0.00 88 1015.8
20260507065922 40 300 0.0 1.0 0.00 0.03 0.00 88 1015.8
20260507065022 41 300 0.0 1.0 0.00 0.03 0.00 88 1015.9
20260507064122 41 300 0.0 0.0 0.00 0.03 0.00 89 1016.0
20260507062322 40 300 0.0 0.0 0.00 0.03 0.00 89 1016.1
20260507061424 41 300 0.0 0.0 0.00 0.03 0.00 89 1016.1
20260507060522 41 300 0.0 0.0 0.00 0.04 0.00 89 1016.0
20260507055624 41 300 0.0 0.0 0.00 0.05 0.00 89 1016.0
20260507054723 41 300 0.0 0.0 0.00 0.07 0.00 88 1015.9
20260507053857 41 300 0.0 0.0 0.00 0.08 0.00 88 1015.9
20260507053822 41 300 0.0 0.0 0.00 0.08 0.00 88 1015.9
20260507052923 41 300 0.0 0.0 0.00 0.10 0.00 87 1015.9
20260507052024 42 300 0.0 0.0 0.00 0.10 0.00 87 1015.8
20260507051123 42 300 0.0 0.0 0.00 0.12 0.00 88 1015.9
20260507050222 42 300 0.0 0.0 0.00 0.12 0.00 87 1016.0
20260507045323 42 300 0.0 0.0 0.00 0.14 0.00 87 1016.0
20260507044422 43 300 0.0 1.0 0.00 0.16 0.00 86 1015.8
20260507043522 43 300 0.0 0.0 0.00 0.19 0.00 86 1015.7
20260507042622 43 300 0.0 0.0 0.00 0.22 0.00 84 1015.7